• în România
  • Lista ţărilor
  • Pe 7 zile
  • Temperatura apei
  • Hartă satelitară
  • Meteo pe hartă
  • Widget-uri
  • user-avatar
    Intrare

    Meteo pe oră la Spring Garden

    Astăzi, 25 Mai, Vineri

    Timp Temperatura Precipitaţii Vânt Presiune Umiditate
    00:00 +11°C° 1,1 mm 1 m/s 646 mmHg 95%
    01:00 +11°C° 1,1 mm 1 m/s 646 mmHg 95%
    02:00 +11°C° 0,5 mm 1 m/s 646 mmHg 95%
    03:00 +11°C° 0,5 mm 1 m/s 645 mmHg 95%
    04:00 +11°C° 0,5 mm 1 m/s 645 mmHg 95%
    05:00 +11°C° 0,8 mm 1 m/s 645 mmHg 95%
    06:00 +11°C° 0,8 mm 1 m/s 645 mmHg 94%
    07:00 +10°C° 0,8 mm 1 m/s 645 mmHg 94%
    08:00 +9°C° 1,4 mm 2 m/s 646 mmHg 94%
    09:00 +9°C° 1,4 mm 2 m/s 646 mmHg 94%
    10:00 +9°C° 1,4 mm 2 m/s 646 mmHg 93%
    11:00 +9°C° 1,2 mm 2 m/s 646 mmHg 92%
    12:00 +9°C° 1,2 mm 2 m/s 646 mmHg 91%
    13:00 +9°C° 1,2 mm 2 m/s 646 mmHg 90%
    14:00 +9°C° 0,5 mm 2 m/s 646 mmHg 89%
    15:00 +9°C° 0,5 mm 2 m/s 646 mmHg 89%
    16:00 +9°C° 0,5 mm 2 m/s 646 mmHg 89%
    17:00 +9°C° 0,2 mm 2 m/s 646 mmHg 90%
    18:00 +8°C° 0,2 mm 2 m/s 646 mmHg 91%
    19:00 +8°C° 0,2 mm 2 m/s 645 mmHg 93%
    20:00 +8°C° 0,2 mm 2 m/s 646 mmHg 93%
    21:00 +8°C° 0,2 mm 1 m/s 646 mmHg 94%
    22:00 +8°C° 0,2 mm 1 m/s 646 mmHg 95%
    23:00 +8°C° 0,4 mm 1 m/s 646 mmHg 95%

    Mâine, 26 Mai, Sâmbătă

    Timp Temperatura Precipitaţii Vânt Presiune Umiditate
    00:00 +8°C° 0,4 mm 1 m/s 645 mmHg 95%
    01:00 +8°C° 0,4 mm 1 m/s 645 mmHg 96%
    02:00 +8°C° 0,1 mm 1 m/s 645 mmHg 96%
    03:00 +8°C° 0,1 mm 1 m/s 645 mmHg 96%
    04:00 +7°C° 0,1 mm 1 m/s 645 mmHg 96%
    05:00 +8°C° 0,3 mm 1 m/s 645 mmHg 95%
    06:00 +8°C° 0,3 mm 1 m/s 645 mmHg 93%
    07:00 +9°C° 0,3 mm 1 m/s 645 mmHg 92%
    08:00 +10°C° 0,2 mm 1 m/s 646 mmHg 87%
    09:00 +10°C° 0,2 mm 2 m/s 646 mmHg 81%
    10:00 +12°C° 0,2 mm 2 m/s 647 mmHg 76%
    11:00 +13°C° 0,4 mm 2 m/s 647 mmHg 75%
    12:00 +13°C° 0,4 mm 2 m/s 647 mmHg 74%
    13:00 +13°C° 0,4 mm 2 m/s 647 mmHg 74%
    14:00 +14°C° 0,3 mm 2 m/s 646 mmHg 73%
    15:00 +14°C° 0,3 mm 2 m/s 646 mmHg 71%
    16:00 +14°C° 0,3 mm 1 m/s 646 mmHg 70%
    17:00 +14°C° 0,1 mm 1 m/s 646 mmHg 75%
    18:00 +13°C° 0,1 mm 1 m/s 646 mmHg 79%
    19:00 +12°C° 0,1 mm 1 m/s 646 mmHg 83%
    20:00 +11°C° 0 mm 1 m/s 646 mmHg 85%
    21:00 +10°C° 0 mm 1 m/s 646 mmHg 87%
    22:00 +9°C° 0 mm 1 m/s 646 mmHg 89%
    23:00 +8°C° 0 mm 1 m/s 645 mmHg 89%

    Poimâine, 27 Mai, Duminică

    Timp Temperatura Precipitaţii Vânt Presiune Umiditate
    00:00 +8°C° 0 mm 1 m/s 645 mmHg 89%
    01:00 +8°C° 0 mm 1 m/s 645 mmHg 89%
    02:00 +7°C° 0 mm 1 m/s 645 mmHg 88%
    03:00 +7°C° 0 mm 1 m/s 645 mmHg 87%
    04:00 +7°C° 0 mm 1 m/s 645 mmHg 86%
    05:00 +8°C° 0 mm 1 m/s 646 mmHg 81%
    06:00 +10°C° 0 mm 1 m/s 646 mmHg 76%
    07:00 +12°C° 0 mm 1 m/s 647 mmHg 71%
    08:00 +15°C° 0 mm 2 m/s 648 mmHg 61%
    09:00 +17°C° 0 mm 2 m/s 648 mmHg 51%
    10:00 +20°C° 0 mm 2 m/s 649 mmHg 42%
    11:00 +21°C° 0 mm 2 m/s 649 mmHg 39%
    12:00 +23°C° 0 mm 2 m/s 649 mmHg 36%
    13:00 +24°C° 0 mm 2 m/s 649 mmHg 33%
    14:00 +24°C° 0 mm 2 m/s 648 mmHg 34%
    15:00 +24°C° 0 mm 3 m/s 648 mmHg 35%
    16:00 +24°C° 0 mm 3 m/s 648 mmHg 36%
    17:00 +21°C° 0 mm 2 m/s 647 mmHg 44%
    18:00 +19°C° 0 mm 2 m/s 647 mmHg 53%
    19:00 +18°C° 0 mm 1 m/s 647 mmHg 61%
    20:00 +16°C° 0 mm 1 m/s 647 mmHg 64%
    21:00 +14°C° 0 mm 1 m/s 647 mmHg 66%
    22:00 +13°C° 0 mm 1 m/s 647 mmHg 69%
    23:00 +12°C° 0 mm 1 m/s 647 mmHg 70%

    28 Mai, Luni

    Timp Temperatura Precipitaţii Vânt Presiune Umiditate
    00:00 +12°C° 0 mm 1 m/s 646 mmHg 71%
    01:00 +12°C° 0 mm 2 m/s 646 mmHg 72%
    02:00 +10°C° 0 mm 2 m/s 646 mmHg 73%
    03:00 +10°C° 0 mm 2 m/s 646 mmHg 74%
    04:00 +10°C° 0 mm 2 m/s 646 mmHg 76%
    05:00 +13°C° 0 mm 1 m/s 647 mmHg 68%
    06:00 +15°C° 0 mm 1 m/s 648 mmHg 61%
    07:00 +18°C° 0 mm 1 m/s 649 mmHg 54%
    08:00 +19°C° 0 mm 2 m/s 649 mmHg 46%
    09:00 +23°C° 0 mm 2 m/s 650 mmHg 38%
    10:00 +25°C° 0 mm 2 m/s 650 mmHg 30%
    11:00 +26°C° 0 mm 2 m/s 650 mmHg 27%
    12:00 +27°C° 0 mm 2 m/s 650 mmHg 25%
    13:00 +28°C° 0 mm 2 m/s 650 mmHg 23%
    14:00 +28°C° 0 mm 2 m/s 650 mmHg 24%
    15:00 +28°C° 0 mm 2 m/s 649 mmHg 25%
    16:00 +28°C° 0 mm 2 m/s 649 mmHg 25%
    17:00 +25°C° 0 mm 2 m/s 648 mmHg 34%
    18:00 +23°C° 0 mm 1 m/s 647 mmHg 44%
    19:00 +20°C° 0 mm 1 m/s 647 mmHg 53%
    20:00 +19°C° 0 mm 1 m/s 646 mmHg 55%
    21:00 +16°C° 0 mm 1 m/s 646 mmHg 56%
    22:00 +15°C° 0 mm 1 m/s 646 mmHg 58%
    23:00 +15°C° 0 mm 1 m/s 646 mmHg 58%

    29 Mai, Marţi

    Timp Temperatura Precipitaţii Vânt Presiune Umiditate
    00:00 +14°C° 0 mm 1 m/s 646 mmHg 59%
    01:00 +14°C° 0 mm 1 m/s 645 mmHg 59%
    02:00 +14°C° 0 mm 1 m/s 645 mmHg 60%
    03:00 +13°C° 0 mm 1 m/s 645 mmHg 60%
    04:00 +13°C° 0 mm 1 m/s 645 mmHg 61%
    05:00 +15°C° 0 mm 1 m/s 645 mmHg 56%
    06:00 +18°C° 0 mm 1 m/s 646 mmHg 52%
    07:00 +20°C° 0 mm 1 m/s 647 mmHg 47%
    08:00 +23°C° 0 mm 1 m/s 647 mmHg 41%
    09:00 +25°C° 0 mm 2 m/s 647 mmHg 34%
    10:00 +27°C° 0 mm 2 m/s 647 mmHg 28%
    11:00 +28°C° 0 mm 3 m/s 647 mmHg 27%
    12:00 +28°C° 0 mm 3 m/s 647 mmHg 26%
    13:00 +28°C° 0 mm 4 m/s 646 mmHg 25%
    14:00 +28°C° 0 mm 4 m/s 646 mmHg 25%
    15:00 +28°C° 0 mm 4 m/s 645 mmHg 26%
    16:00 +27°C° 0 mm 4 m/s 644 mmHg 27%
    17:00 +25°C° 0 mm 3 m/s 644 mmHg 36%
    18:00 +21°C° 0 mm 3 m/s 643 mmHg 44%
    19:00 +19°C° 0 mm 2 m/s 642 mmHg 53%
    20:00 +17°C° 0 mm 2 m/s 642 mmHg 58%
    21:00 +16°C° 0 mm 2 m/s 641 mmHg 63%
    22:00 +14°C° 0 mm 1 m/s 641 mmHg 67%
    23:00 +14°C° 0 mm 1 m/s 641 mmHg 70%

    30 Mai, Miercuri

    Timp Temperatura Precipitaţii Vânt Presiune Umiditate
    00:00 +13°C° 0 mm 1 m/s 640 mmHg 73%
    01:00 +13°C° 0 mm 1 m/s 640 mmHg 76%
    02:00 +12°C° 0 mm 1 m/s 640 mmHg 77%
    03:00 +12°C° 0 mm 1 m/s 640 mmHg 78%
    04:00 +12°C° 0 mm 1 m/s 639 mmHg 78%
    05:00 +13°C° 0 mm 2 m/s 640 mmHg 68%
    06:00 +15°C° 0 mm 2 m/s 641 mmHg 59%
    07:00 +17°C° 0 mm 3 m/s 641 mmHg 49%
    08:00 +18°C° 0 mm 4 m/s 642 mmHg 42%
    09:00 +19°C° 0 mm 5 m/s 642 mmHg 35%
    10:00 +20°C° 0 mm 6 m/s 642 mmHg 29%
    11:00 +21°C° 0 mm 6 m/s 642 mmHg 27%
    12:00 +21°C° 0 mm 6 m/s 642 mmHg 26%
    13:00 +21°C° 0 mm 6 m/s 642 mmHg 24%
    14:00 +21°C° 0 mm 6 m/s 642 mmHg 25%
    15:00 +20°C° 0 mm 6 m/s 642 mmHg 26%
    16:00 +20°C° 0 mm 5 m/s 641 mmHg 26%
    17:00 +18°C° 0 mm 4 m/s 641 mmHg 33%
    18:00 +14°C° 0 mm 3 m/s 640 mmHg 40%
    19:00 +13°C° 0 mm 2 m/s 640 mmHg 47%
    20:00 +12°C° 0 mm 2 m/s 640 mmHg 50%
    21:00 +10°C° 0 mm 1 m/s 639 mmHg 54%
    22:00 +9°C° 0 mm 1 m/s 639 mmHg 57%
    23:00 +8°C° 0 mm 1 m/s 639 mmHg 59%
    Arată mai mult